From 11/03/2018 00:00 to 11/19/2018 00:00

Date LAKE ELEVATION [FT] PRECIPITATION INCREMENT [IN] PRECIPITATION TOTAL [IN] AIR TEMPERATURE [F] RELATIVE HUMIDITY [%] RELEASE [CFS]
11/17/2018 16:00 -- -- -- -- -- 168.0
11/17/2018 15:00 115.15 0.05 -- 44.0 -- 167.3
11/17/2018 14:00 115.15 0.07 -- 43.0 -- 167.5
11/17/2018 13:00 115.16 0.07 -- 44.0 -- 167.5
11/17/2018 12:00 115.15 0.06 -- 44.0 -- 167.3
11/17/2018 11:00 115.16 0.02 -- 43.0 -- 167.3
11/17/2018 10:00 115.15 0.01 -- 39.0 -- 167.3
11/17/2018 09:00 115.16 0.00 -- 36.0 -- 167.8
11/17/2018 08:00 115.15 0.00 -- 34.0 -- 167.0
11/17/2018 07:00 115.15 0.00 -- 33.0 -- 167.5
11/17/2018 06:00 115.16 0.00 -- 33.0 -- 167.5
11/17/2018 05:00 115.15 0.00 -- 32.0 -- 167.0
11/17/2018 04:00 115.15 0.00 -- 32.0 -- 167.0
11/17/2018 03:00 115.15 0.00 -- 30.0 -- 167.3
11/17/2018 02:00 115.16 0.00 -- 33.0 -- 167.5
11/17/2018 01:00 115.15 0.00 -- 34.0 -- 166.8
11/17/2018 00:00 115.15 0.00 -- 30.0 -- 166.8
11/16/2018 23:00 115.15 0.00 -- 30.0 -- 167.0
11/16/2018 22:00 115.15 0.00 -- 32.0 -- 166.5
11/16/2018 21:00 115.15 0.00 -- 31.0 -- 166.5
11/16/2018 20:00 115.15 0.00 -- 31.0 -- 166.0
11/16/2018 19:00 115.15 0.00 -- 32.0 -- 166.0
11/16/2018 18:00 115.15 0.01 -- 33.0 -- 165.8
11/16/2018 17:00 115.14 0.01 -- 34.0 -- 165.5
11/16/2018 16:00 115.14 0.00 -- 34.0 -- 165.0
11/16/2018 15:00 115.14 0.01 -- 33.0 -- 164.8
11/16/2018 14:00 115.14 0.01 -- 32.0 -- 165.0
11/16/2018 13:00 115.14 0.01 -- 30.0 -- 164.3
11/16/2018 12:00 115.13 0.02 -- 30.0 -- 163.8
11/16/2018 11:00 115.13 0.02 -- 30.0 -- 163.8
11/16/2018 10:00 115.13 0.18 -- 31.0 -- 163.0
11/16/2018 09:00 115.13 0.30 -- 39.0 -- 162.5
11/16/2018 08:00 115.12 0.18 -- 38.0 -- 162.3
11/16/2018 07:00 115.13 0.00 -- 36.0 -- 162.3
11/16/2018 06:00 115.13 0.00 -- 35.0 -- 162.3
11/16/2018 05:00 115.12 0.00 -- 33.0 -- 162.0
11/16/2018 04:00 115.12 0.00 -- 32.0 -- 162.0
11/16/2018 03:00 115.12 0.00 -- 32.0 -- 161.8
11/16/2018 02:00 115.12 0.00 -- 32.0 -- 162.0
11/16/2018 01:00 115.12 0.00 -- 31.0 -- 162.0
11/16/2018 00:00 115.12 0.00 0.75 27.0 -- 161.8
11/15/2018 23:00 115.12 0.00 -- 26.0 -- 162.0
11/15/2018 22:00 115.12 0.00 -- 27.0 -- 162.0
11/15/2018 21:00 115.12 0.00 -- 28.0 -- 162.3
11/15/2018 20:00 115.13 0.00 -- 28.0 -- 163.0
11/15/2018 19:00 115.13 0.00 -- 28.0 -- 163.3
11/15/2018 18:00 115.13 0.00 -- 28.0 -- 163.0
11/15/2018 17:00 115.13 0.00 -- 29.0 -- 163.5
11/15/2018 16:00 115.13 0.00 -- 30.0 -- 164.0
11/15/2018 15:00 115.13 0.00 -- 30.0 -- 164.0
11/15/2018 14:00 115.14 0.00 -- 29.0 -- 164.3
11/15/2018 13:00 115.13 0.00 -- 28.0 -- 164.3
11/15/2018 12:00 115.14 0.00 -- 25.0 -- 164.5
11/15/2018 11:00 115.14 0.00 -- 24.0 -- 165.0
11/15/2018 10:00 115.14 0.00 -- 22.0 -- 164.8
11/15/2018 09:00 115.14 0.00 -- 20.0 -- 165.3
11/15/2018 08:00 115.14 0.00 -- 19.0 -- 165.5
11/15/2018 07:00 115.14 0.00 -- 19.0 -- 166.0
11/15/2018 06:00 115.15 0.00 -- 19.0 -- 166.5
11/15/2018 05:00 115.15 0.00 -- 19.0 -- 166.5
11/15/2018 04:00 115.15 0.00 -- 19.0 -- 167.0
11/15/2018 03:00 115.15 0.00 -- 20.0 -- 167.5
11/15/2018 02:00 115.16 0.00 -- 20.0 -- 167.3
11/15/2018 01:00 115.16 0.00 -- 20.0 -- 168.0
11/15/2018 00:00 115.16 0.00 0.00 20.0 -- 168.5
11/14/2018 23:00 115.17 0.00 -- 21.0 -- 169.0
11/14/2018 22:00 115.17 0.00 -- 22.0 -- 169.8
11/14/2018 21:00 115.17 0.00 -- 23.0 -- 170.5
11/14/2018 20:00 115.18 0.00 -- 24.0 -- 170.5
11/14/2018 19:00 115.18 0.00 -- 25.0 -- 171.0
11/14/2018 18:00 115.18 0.00 -- 28.0 -- 171.5
11/14/2018 17:00 115.18 0.00 -- 30.0 -- 171.8
11/14/2018 16:00 115.18 0.00 -- 31.0 -- 171.3
11/14/2018 15:00 115.18 0.00 -- 31.0 -- 171.0
11/14/2018 14:00 115.18 0.00 -- 31.0 -- 171.0
11/14/2018 13:00 115.17 0.00 -- 30.0 -- 171.0
11/14/2018 12:00 115.17 0.00 -- 32.0 -- 170.8
11/14/2018 11:00 115.17 0.00 -- 30.0 -- 170.8
11/14/2018 10:00 115.17 0.00 -- 30.0 -- 170.0
11/14/2018 09:00 115.17 0.00 -- 30.0 -- 170.0
11/14/2018 08:00 115.17 0.00 -- 30.0 -- 170.0
11/14/2018 07:00 115.17 0.00 -- 30.0 -- 170.0
11/14/2018 06:00 115.17 0.00 -- 30.0 -- 169.5
11/14/2018 05:00 115.17 0.00 -- 31.0 -- 169.5
11/14/2018 04:00 115.16 0.00 -- 31.0 -- 169.0
11/14/2018 03:00 115.16 0.00 -- 33.0 -- 168.0
11/14/2018 02:00 115.16 0.00 -- 34.0 -- 167.8
11/14/2018 01:00 115.15 0.00 -- 37.0 -- 167.3
11/14/2018 00:00 115.15 0.00 0.00 38.0 -- 166.5
11/13/2018 23:00 115.15 0.00 -- 40.0 -- 166.0
11/13/2018 22:00 115.14 0.00 -- 41.0 -- 165.5
11/13/2018 21:00 115.14 0.00 -- 41.0 -- 164.5
11/13/2018 20:00 115.14 0.00 -- 41.0 -- 164.0
11/13/2018 19:00 115.13 0.01 -- 41.0 -- 163.8
11/13/2018 18:00 115.13 0.00 -- 42.0 -- 162.5
11/13/2018 17:00 115.13 0.00 -- 42.0 -- 162.0
11/13/2018 16:00 115.12 0.00 -- 44.0 -- 161.3
11/13/2018 15:00 115.11 0.05 -- 47.0 -- 159.5
11/13/2018 14:00 115.10 0.12 -- 51.0 -- 158.3
11/13/2018 13:00 115.10 0.17 -- 51.0 -- 157.8
11/13/2018 12:00 115.09 0.10 -- 51.0 -- 157.0
11/13/2018 11:00 115.09 0.14 -- 49.0 -- 156.5
11/13/2018 10:00 115.08 0.11 -- 47.0 -- 155.8
11/13/2018 09:00 115.08 0.12 -- 46.0 -- 155.8
11/13/2018 08:00 115.08 0.14 -- 45.0 -- 155.8
11/13/2018 07:00 115.08 0.14 -- 44.0 -- 156.3
11/13/2018 06:00 115.08 0.08 -- 43.0 -- 156.0
11/13/2018 05:00 115.09 0.07 -- 41.0 -- 156.0
11/13/2018 04:00 115.09 0.04 -- 39.0 -- 156.0
11/13/2018 03:00 115.09 0.01 -- 38.0 -- 156.8
11/13/2018 02:00 115.09 0.00 -- 38.0 -- 157.0
11/13/2018 01:00 115.09 0.00 -- 36.0 -- 157.5
11/13/2018 00:00 115.09 0.00 1.30 36.0 -- 157.8
11/12/2018 23:00 115.10 0.00 -- 35.0 -- 158.0
11/12/2018 22:00 115.10 0.00 -- 34.0 -- 159.0
11/12/2018 21:00 115.10 0.00 -- 34.0 -- 159.3
11/12/2018 20:00 115.10 0.00 -- 34.0 -- 159.5
11/12/2018 19:00 115.11 0.00 -- 35.0 -- 160.0
11/12/2018 18:00 115.11 0.00 -- 38.0 -- 160.0
11/12/2018 17:00 115.11 0.00 -- 43.0 -- 161.0
11/12/2018 16:00 115.11 0.00 -- 46.0 -- 160.8
11/12/2018 15:00 115.11 0.00 -- 46.0 -- 160.8
11/12/2018 14:00 115.12 0.00 -- 45.0 -- 162.3
11/12/2018 13:00 115.12 0.00 -- 44.0 -- 162.5
11/12/2018 12:00 115.12 0.00 -- 42.0 -- 162.8
11/12/2018 11:00 115.13 0.00 -- 39.0 -- 163.0
11/12/2018 10:00 115.13 0.00 -- 33.0 -- 163.3
11/12/2018 09:00 115.13 0.00 -- 28.0 -- 164.0
11/12/2018 08:00 115.13 0.00 -- 26.0 -- 164.3
11/12/2018 07:00 115.13 0.00 -- 26.0 -- 164.8
11/12/2018 06:00 115.14 0.00 -- 26.0 -- 165.0
11/12/2018 05:00 115.14 0.00 -- 26.0 -- 165.3
11/12/2018 04:00 115.15 0.00 -- 26.0 -- 166.3
11/12/2018 03:00 115.15 0.00 -- 27.0 -- 166.5
11/12/2018 02:00 115.15 0.00 -- 28.0 -- 166.8
11/12/2018 01:00 115.16 0.00 -- 28.0 -- 168.0
11/12/2018 00:00 115.16 0.00 0.00 29.0 -- 168.0
11/11/2018 23:00 115.16 0.00 -- 28.0 -- 169.3
11/11/2018 22:00 115.17 0.00 -- 28.0 -- 169.8
11/11/2018 21:00 115.17 0.00 -- 29.0 -- 170.5
11/11/2018 20:00 115.18 0.00 -- 30.0 -- 171.5
11/11/2018 19:00 115.18 0.00 -- 34.0 -- 172.0
11/11/2018 18:00 115.19 0.00 -- 37.0 -- 172.8
11/11/2018 17:00 115.19 0.00 -- 40.0 -- 173.3
11/11/2018 16:00 115.19 0.00 -- 41.0 -- 174.0
11/11/2018 15:00 115.19 0.00 -- 41.0 -- 174.5
11/11/2018 14:00 115.19 0.00 -- 40.0 -- 174.5
11/11/2018 13:00 115.20 0.00 -- 39.0 -- 174.5
11/11/2018 12:00 115.20 0.00 -- 38.0 -- 175.3
11/11/2018 11:00 115.20 0.00 -- 36.0 -- 175.8
11/11/2018 10:00 115.20 0.00 -- 34.0 -- 175.8
11/11/2018 09:00 115.20 0.00 -- 33.0 -- 176.0
11/11/2018 08:00 115.21 0.00 -- 32.0 -- 177.0
11/11/2018 07:00 115.21 0.00 -- 32.0 -- 177.5
11/11/2018 06:00 115.22 0.00 -- 33.0 -- 178.0
11/11/2018 05:00 115.22 0.00 -- 32.0 -- 178.3
11/11/2018 04:00 115.22 -- -- 34.0 -- 178.8
11/11/2018 03:00 115.22 -- -- 35.0 -- 179.0
11/11/2018 02:00 115.22 0.00 -- 35.0 -- 179.3
11/11/2018 01:00 115.22 0.00 -- 36.0 -- 179.8
11/11/2018 00:00 115.23 0.00 -- 36.0 -- 180.3
11/10/2018 23:00 115.23 0.00 -- 35.0 -- 180.5
11/10/2018 22:00 115.23 0.00 -- 36.0 -- 180.8
11/10/2018 21:00 115.23 0.00 -- 36.0 -- 180.8
11/10/2018 20:00 115.23 0.00 -- 36.0 -- 180.8
11/10/2018 19:00 115.23 0.00 -- 37.0 -- 180.8
11/10/2018 18:00 115.23 0.00 -- 39.0 -- 180.3
11/10/2018 17:00 115.23 0.03 -- 41.0 -- 180.8
11/10/2018 16:00 115.23 0.00 -- 43.0 -- 180.3
11/10/2018 15:00 115.23 0.00 -- 44.0 -- 180.3
11/10/2018 14:00 115.22 0.00 -- 46.0 -- 179.8
11/10/2018 13:00 115.23 0.00 -- 44.0 -- 179.8
11/10/2018 12:00 115.22 0.01 -- 44.0 -- 179.0
11/10/2018 11:00 115.22 0.00 -- 41.0 -- 178.8
11/10/2018 10:00 115.22 0.00 -- 40.0 -- 178.3
11/10/2018 09:00 115.22 0.01 -- 41.0 -- 178.0
11/10/2018 08:00 115.21 0.01 -- 44.0 -- 178.0
11/10/2018 07:00 115.21 0.01 -- 44.0 -- 177.5
11/10/2018 06:00 115.21 0.01 -- 45.0 -- 177.0
11/10/2018 05:00 115.21 0.01 -- 45.0 -- 176.0
11/10/2018 04:00 115.21 0.05 -- 46.0 -- 176.0
11/10/2018 03:00 115.21 0.12 -- 46.0 -- 176.0
11/10/2018 02:00 115.20 0.22 -- 46.0 -- 175.3
11/10/2018 01:00 115.20 0.21 -- 45.0 -- 175.0
11/10/2018 00:00 115.20 0.17 0.69 45.0 -- 175.0
11/09/2018 23:00 115.20 0.11 -- 44.0 -- 176.0
11/09/2018 22:00 115.20 0.13 -- 44.0 -- 176.0
11/09/2018 21:00 115.20 0.04 -- 44.0 -- 175.8
11/09/2018 20:00 115.21 0.00 -- 45.0 -- 176.5
11/09/2018 19:00 115.21 0.00 -- 46.0 -- 176.8
11/09/2018 18:00 115.21 0.00 -- 46.0 -- 177.3
11/09/2018 17:00 115.21 0.00 -- 46.0 -- 177.8
11/09/2018 16:00 115.22 0.00 -- 47.0 -- 178.0
11/09/2018 15:00 115.22 0.00 -- 47.0 -- 178.3
11/09/2018 14:00 115.22 0.00 -- 47.0 -- 179.0
11/09/2018 13:00 115.22 0.00 -- 47.0 -- 178.5
11/09/2018 12:00 115.23 0.00 -- 46.0 -- 179.8
11/09/2018 11:00 115.22 0.00 -- 46.0 -- 179.3
11/09/2018 10:00 115.22 0.00 -- 42.0 -- 179.8
11/09/2018 09:00 115.23 0.00 -- 35.0 -- 180.0
11/09/2018 08:00 115.23 0.00 -- 33.0 -- 180.5
11/09/2018 07:00 115.23 0.00 -- 32.0 -- 181.0
11/09/2018 06:00 115.23 0.00 -- 32.0 -- 181.3
11/09/2018 05:00 115.24 0.00 -- 33.0 -- 181.8
11/09/2018 04:00 115.24 0.00 -- 32.0 -- 182.0
11/09/2018 03:00 115.24 0.00 -- 33.0 -- 182.3
11/09/2018 02:00 115.24 0.00 -- 34.0 -- 183.0
11/09/2018 01:00 115.25 0.00 -- 35.0 -- 183.8
11/09/2018 00:00 115.25 0.00 0.45 37.0 -- 184.0
11/08/2018 23:00 115.25 0.00 -- 38.0 -- 184.3
11/08/2018 22:00 115.25 0.00 -- 38.0 -- 184.8
11/08/2018 21:00 115.26 0.00 -- 40.0 -- 185.0
11/08/2018 20:00 115.26 0.00 -- 40.0 -- 185.8
11/08/2018 19:00 115.26 0.00 -- 42.0 -- 186.5
11/08/2018 18:00 115.27 0.00 -- 46.0 -- 187.8
11/08/2018 17:00 115.27 0.00 -- 49.0 -- 188.0
11/08/2018 16:00 115.28 0.00 -- 51.0 -- 189.0
11/08/2018 15:00 115.28 0.00 -- 51.0 -- 190.8
11/08/2018 14:00 115.29 0.00 -- 51.0 -- 192.0
11/08/2018 13:00 115.30 0.00 -- 51.0 -- 193.8
11/08/2018 12:00 115.31 0.00 -- 50.0 -- 195.5
11/08/2018 11:00 115.32 0.00 -- 49.0 -- 183.0
11/08/2018 10:00 115.32 0.00 -- 45.0 -- 139.0
11/08/2018 09:00 115.32 0.00 -- 40.0 -- 139.0
11/08/2018 08:00 115.32 0.00 -- 39.0 -- 138.8
11/08/2018 07:00 115.32 0.00 -- 41.0 -- 139.0
11/08/2018 06:00 115.32 0.00 -- 43.0 -- 138.8
11/08/2018 05:00 115.32 0.00 -- 44.0 -- 139.0
11/08/2018 04:00 115.32 0.00 -- 45.0 -- 138.8
11/08/2018 03:00 115.32 0.00 -- 47.0 -- 138.0
11/08/2018 02:00 115.32 0.00 -- 48.0 -- 138.0
11/08/2018 01:00 115.32 0.00 -- 48.0 -- 137.8
11/08/2018 00:00 115.32 0.00 0.00 46.0 -- 137.5
11/07/2018 23:00 115.32 0.00 -- 44.0 -- 137.3
11/07/2018 22:00 115.31 0.00 -- 43.0 -- 137.0
11/07/2018 21:00 115.32 0.00 -- 45.0 -- 137.3
11/07/2018 20:00 115.31 0.00 -- 48.0 -- 136.8
11/07/2018 19:00 115.31 0.00 -- 50.0 -- 136.0
11/07/2018 18:00 115.30 0.00 -- 53.0 -- 135.5
11/07/2018 17:00 115.31 0.01 -- 58.0 -- 135.8
11/07/2018 16:00 115.30 0.00 -- 60.0 -- 135.0
11/07/2018 15:00 115.30 0.00 -- 60.0 -- 134.3
11/07/2018 14:00 115.29 0.00 -- 59.0 -- 133.5
11/07/2018 13:00 115.29 0.00 -- 59.0 -- 132.5
11/07/2018 12:00 115.29 0.00 -- 58.0 -- 131.8
11/07/2018 11:00 115.28 0.00 -- 56.0 -- 131.0
11/07/2018 10:00 115.28 0.00 -- 54.0 -- 130.5
11/07/2018 09:00 115.28 0.00 -- 50.0 -- 130.3
11/07/2018 08:00 115.27 0.00 -- 49.0 -- 129.8
11/07/2018 07:00 115.27 0.00 -- 46.0 -- 128.8
11/07/2018 06:00 115.27 0.00 -- 49.0 -- 128.5
11/07/2018 05:00 115.26 0.00 -- 50.0 -- 127.8
11/07/2018 04:00 115.26 0.00 -- 50.0 -- 127.3
11/07/2018 03:00 115.26 0.00 -- 50.0 -- 127.0
11/07/2018 02:00 115.25 0.00 -- 50.0 -- 126.3
11/07/2018 01:00 115.25 0.01 -- 51.0 -- 125.8
11/07/2018 00:00 115.25 0.00 0.02 51.0 -- 125.3
11/06/2018 23:00 115.24 0.00 -- 52.0 -- 124.3
11/06/2018 22:00 115.24 0.01 -- 51.0 -- 123.5
11/06/2018 21:00 115.23 0.04 -- 49.0 -- 122.8
11/06/2018 20:00 115.23 0.05 -- 48.0 -- 122.0
11/06/2018 19:00 115.22 0.01 -- 48.0 -- 121.8
11/06/2018 18:00 115.22 0.02 -- 48.0 -- 120.8
11/06/2018 17:00 115.22 0.07 -- 48.0 -- 120.0
11/06/2018 16:00 115.21 0.06 -- 48.0 -- 119.8
11/06/2018 15:00 115.21 0.08 -- 48.0 -- 118.8
11/06/2018 14:00 115.20 0.14 -- 48.0 -- 118.3
11/06/2018 13:00 115.21 0.00 -- 48.0 -- 118.0
11/06/2018 12:00 115.20 0.00 -- 48.0 -- 117.5
11/06/2018 11:00 115.19 0.01 -- 47.0 -- 116.8
11/06/2018 10:00 115.19 0.00 -- 45.0 -- 115.8
11/06/2018 09:00 115.19 0.00 -- 44.0 -- 115.5
11/06/2018 08:00 115.19 0.00 -- 44.0 -- 115.5
11/06/2018 07:00 115.18 0.01 -- 43.0 -- 115.0
11/06/2018 06:00 115.18 0.01 -- 43.0 -- 114.0
11/06/2018 05:00 115.18 0.01 -- 43.0 -- 114.0
11/06/2018 04:00 115.18 0.00 -- 42.0 -- 113.8
11/06/2018 03:00 115.17 0.02 -- 42.0 -- 113.0
11/06/2018 02:00 115.17 0.04 -- 42.0 -- 112.5
11/06/2018 01:00 115.17 0.01 -- 41.0 -- 112.8
11/06/2018 00:00 115.17 0.05 0.59 41.0 -- 112.0
11/05/2018 23:00 115.16 0.07 -- 41.0 -- 111.8
11/05/2018 22:00 115.16 0.04 -- 41.0 -- 111.0
11/05/2018 21:00 115.16 0.01 -- 41.0 -- 111.3
11/05/2018 20:00 115.16 0.02 -- 41.0 -- 111.0
11/05/2018 19:00 115.16 0.00 -- 41.0 -- 110.8
11/05/2018 18:00 115.16 0.00 -- 41.0 -- 110.0
11/05/2018 17:00 115.16 0.00 -- 41.0 -- 110.0
11/05/2018 16:00 115.15 0.00 -- 40.0 -- 110.0
11/05/2018 15:00 115.15 0.00 -- 41.0 -- 109.8
11/05/2018 14:00 115.15 0.00 -- 42.0 -- 109.8
11/05/2018 13:00 115.15 0.00 -- 42.0 -- 110.0
11/05/2018 12:00 115.15 0.00 -- 41.0 -- 110.0
11/05/2018 11:00 115.15 0.00 -- 39.0 -- 109.3
11/05/2018 10:00 115.15 0.00 -- 38.0 -- 109.0
11/05/2018 09:00 115.15 0.00 -- 37.0 -- 109.5
11/05/2018 08:00 115.15 0.00 -- 36.0 -- 109.3
11/05/2018 07:00 115.15 0.00 -- 35.0 -- 109.5
11/05/2018 06:00 115.15 0.00 -- 34.0 -- 109.5
11/05/2018 05:00 115.15 0.00 -- 34.0 -- 109.0
11/05/2018 04:00 115.15 0.00 -- 34.0 -- 109.3
11/05/2018 03:00 115.15 0.00 -- 34.0 -- 109.0
11/05/2018 02:00 115.15 0.00 -- 35.0 -- 109.8
11/05/2018 01:00 115.15 0.00 -- 36.0 -- 109.5
11/05/2018 00:00 115.15 0.00 0.19 37.0 -- 110.0
11/04/2018 23:00 115.15 0.00 -- 38.0 -- 110.0
11/04/2018 22:00 115.16 0.00 -- 39.0 -- 110.5
11/04/2018 21:00 115.15 0.00 -- 38.0 -- 110.5
11/04/2018 20:00 115.16 0.00 -- 39.0 -- 111.0
11/04/2018 19:00 115.16 0.00 -- 40.0 -- 111.0
11/04/2018 18:00 115.16 0.00 -- 44.0 -- 111.8
11/04/2018 17:00 115.17 0.00 -- 48.0 -- 111.8
11/04/2018 16:00 115.16 0.00 -- 50.0 -- 112.0
11/04/2018 15:00 115.17 0.00 -- 49.0 -- 112.3
11/04/2018 14:00 115.17 0.00 -- 48.0 -- 112.5
11/04/2018 13:00 115.17 0.00 -- 48.0 -- 112.8
11/04/2018 12:00 115.17 0.00 -- 46.0 -- 112.5
11/04/2018 11:00 115.17 0.00 -- 44.0 -- 112.5
11/04/2018 10:00 115.17 0.00 -- 42.0 -- 112.3
11/04/2018 09:00 115.17 0.00 -- 41.0 -- 112.8
11/04/2018 08:00 115.17 0.00 -- 37.0 -- 112.8
11/04/2018 07:00 115.17 0.00 -- 38.0 -- 112.8
11/04/2018 06:00 115.18 0.00 -- 37.0 -- 113.8
11/04/2018 05:00 115.17 0.00 -- 38.0 -- 113.5
11/04/2018 04:00 115.18 0.00 -- 38.0 -- 114.0
11/04/2018 03:00 115.18 0.00 -- 41.0 -- 114.3
11/04/2018 02:00 115.18 0.00 -- 42.0 -- 114.5
11/04/2018 01:00 115.18 0.00 -- 44.0 -- 115.0
11/04/2018 00:00 115.18 0.00 0.00 45.0 -- 115.0
11/03/2018 23:00 115.19 0.00 -- 46.0 -- 114.8
11/03/2018 22:00 115.19 0.00 -- 46.0 -- 114.8
11/03/2018 21:00 115.18 0.00 -- 47.0 -- 115.0
11/03/2018 20:00 115.18 0.00 -- 47.0 -- 114.8
11/03/2018 19:00 115.18 0.00 -- 49.0 -- 114.3
11/03/2018 18:00 115.18 0.00 -- 50.0 -- 114.3
11/03/2018 17:00 115.18 0.00 -- 52.0 -- 113.3
11/03/2018 16:00 115.17 0.01 -- 53.0 -- 113.0
11/03/2018 15:00 -- -- -- 54.0 -- 112.0
11/03/2018 14:00 -- -- -- 52.0 -- 112.0
11/03/2018 13:00 -- -- -- 52.0 -- 111.5
11/03/2018 12:00 -- -- -- 52.0 -- 111.3
11/03/2018 11:00 -- -- -- 51.0 -- 111.3
11/03/2018 10:00 -- -- -- 52.0 -- 111.0
11/03/2018 09:00 -- -- -- 51.0 -- 111.0
11/03/2018 08:00 -- -- -- 50.0 -- 110.5
11/03/2018 07:00 -- -- -- 50.0 -- 111.0
11/03/2018 06:00 -- -- -- 51.0 -- 111.0
11/03/2018 05:00 -- -- -- 50.0 -- 111.5
11/03/2018 04:00 -- -- -- 51.0 -- 112.3
11/03/2018 03:00 -- -- -- 51.0 -- 113.5
11/03/2018 02:00 -- -- -- 52.0 -- 114.5
11/03/2018 01:00 -- -- -- 51.0 -- 116.5
11/03/2018 00:00 -- -- 1.96 51.0 -- 118.3